{"data":{"norad_id":66914,"epoch":"2026-09-20T11:50:09.334176Z","epoch_age_seconds":112567,"freshness":"FRESH","line1":"1 66914U 25284B   26263.49316359  .00000101  00000+0  65029-4 0  9993","line2":"2 66914  80.4002 189.6841 0011701 345.4874  14.5950 13.97342344 40798","mean_motion":13.97342344,"eccentricity":0.0011701,"inclination_deg":80.4002,"raan_deg":189.6841,"arg_perigee_deg":345.4874,"mean_anomaly_deg":14.595,"bstar":6.5029e-5,"rev_number":4079,"period_min":103.05277058147,"perigee_km":894.4930477612,"apogee_km":911.5323943384,"semimajor_km":7281.1497210498,"source":"CELESTRAK","updated_at":"2026-09-21T09:00:16.282652Z"}}